OBJECT N, 44891

Orbit data source: Space-Track

You're viewing an Uncataloged Satellite

Recently launched and/or uncataloged satellites may have evolving metadata. Metadata may include but not limited to: Owner, Maufacturer, Bus, Motor, and Mission.

OBJECT N, 44891 is a satellite in SSO that was launched on Fri, 20 Dec 2019 UTC launched from the Taiyaun Space Center, China (TSC). Unknown objects in Earth's orbit typically refer to objects detected orbiting the Earth but have not yet been identified or cataloged. These objects could be anything from previously untracked satellites, spent rocket stages, debris from satellite collisions, or even natural meteoroids temporarily captured by Earth's gravity.

Loading next visibility...
OBJECT N details
Identifier
44891, 2019-093N
Orbit
SSO
Last TLE update8 hours ago
Origin
Flag of TBDCNSA (TBD)
ManufacturerSAST
MissionSpacecraft
Bus & MotorUnknown
MassUnknown
Launch date (UTC)
2019-12-20 (5 years ago)
Launch vehicleUnknown
Launch site
Taiyaun Space Center, China (TSC)
Object typeUnknown
Shape & HBRUnknown
Radar Cross SectionSmall (<0.1 m²)

Expand to show TLE details & history

TLE from 8 hours ago
0 OBJECT N
1 44891U 19093N   24361.58536911  .00025248  00000-0  16225-2 0  9991
2 44891  98.0050 121.7158 0011602 102.2514 258.0013 15.08358937273055
Epoch: 2024-12-26T14:02Z
Definitive object data (Epoch: 2024-12-26T14:02:55.891Z)
Latitude
Longitude175.42027°
Altitude545.949 km
Speed7.588 km/s
True Right ascension08h 06m 51s
True Declination0° 00' 00"
Sunlit
Object was in full shadow at TLE epoch
Visualization TLE readout
Latitude-81.50292°
Longitude-114.83287°
Altitude577.377 km
Speed7.566 km/s
Apparent Right ascension09h 36m 05s
Apparent Declination-63° 07' 53"
Sunlit
Object is in daylight
Visualization observer readout
Local Sidereal Time21:00:25
Azimuth189.989° SSW
Elevation-66.183°
Doppler factor1
Orbital elements
Apogee altitude546.246 km
Perigee altitude530.198 km
Semi-major axis6,916.359 km
Eccentricity0.0011602
Inclination98.005°
RAAN121.7158°
Arg. of periapsis102.2514°
True anomaly257.87129°
Mean anomaly258.0013°
Eccentric anomaly257.93629°
Mean motion3.77335 °/min
BSTAR0.0016225
Orbital period95.41 mins
Loading maneuver chart data...
Loading historical data...
Loading historical data...
Loading historical data...
Loading historical data...
Loading historical data...
Loading historical data...
Loading historical data...

OBJECT N Visibility forecast

Observer location: undefined°, undefined

Span
Click to sort rows by Start time (UTC) header in descending order
Start Az.
Max El. time (UTC)
Max El. Az.
Max El.
End time (UTC)
End Az.
6 mins2024-12-27 07:41:24.563Z135.999° SSE2024-12-27 07:44:24.563Z87.019° E28.109°2024-12-27 07:47:24.563Z14.147° NNE
6 mins2024-12-27 20:52:24.563Z27.979° NE2024-12-27 20:55:24.563Z123.192° SE37.738°2024-12-27 20:58:24.563Z176.909° S
|